Regional Weather Roundup
Issued by NWS Green Bay, WI

Home | Current Version | Previous Version | Graphics & Text | Print | Product List | Glossary Off
Versions: 1 2 3 4 5 6 7 8 9 10 11 12 13 14 15 16 17 18 19 20 21 22 23 24 25 26 27 28 29 30 31 32 33 34 35 36 37 38 39 40 41 42 43 44 45 46 47 48 49 50

029
ASUS43 KGRB 130111
RWRGRB

NORTH-CENTRAL AND NORTHEAST WISCONSIN REGIONAL WEATHER ROUNDUP
NATIONAL WEATHER SERVICE GREEN BAY WI
700 PM CST FRI FEB 12 2016

WIZ005-009-010>012-018-019-130200-
NORTH CENTRAL WISCONSIN

CITY           SKY/WX    TMP DP  RH WIND       PRES   REMARKS
IRONWOOD       CLOUDY     1  -2  85 NW16      30.34S WCI -18
MANITOWISH WTR CLOUDY    -3  -9  77 NW13G21   30.31S HAZE    WCI -22
ARBOR VITAE    CLEAR     -1 -10  67 NW8       30.31R WCI -16
EAGLE RIVER    CLEAR     -3 -11  71 NW8       30.27S WCI -18
LAND O LAKES   LGT SNOW  -1  -7  78 NW7       30.27S WCI -15
RHINELANDER    CLEAR     -3 -14  59 W13       30.30R WCI -22
PHILLIPS       CLEAR     -3 -15  57 NW6       30.36R WCI -15
ANTIGO         CLEAR     -3 -14  59 NW14G20   30.31R WCI -23
TOMAHAWK       CLEAR     -3 -14  61 NW7       30.35R WCI -17
MERRILL        PTCLDY     0 -15  50 NW5       30.37R WCI -10
$$

WIZ013-073-130200-
NORTHEAST WISCONSIN

CITY           SKY/WX    TMP DP  RH WIND       PRES   REMARKS
IRON MOUNTAIN  CLEAR     -2 -12  62 NW9       30.27R WCI -18
MARINETTE      CLEAR      1 -13  51 NW12G17   30.34R WCI -15
OCONTO         PTCLDY     3 -13  48 NW12      30.37R WCI -14
$$

WIZ017-030-035>037-045-130200-
CENTRAL WISCONSIN

CITY           SKY/WX    TMP DP  RH WIND       PRES   REMARKS
MEDFORD        CLEAR     -1 -14  55 NW13      30.35R WCI -20
WAUSAU         CLEAR      2 -12  52 NW10      30.36R WCI -14
MOSINEE        CLEAR      1 -11  55 NW17G23   30.37R WCI -19
MARSHFIELD     PTCLDY     1 -15  47 NW13      30.38R WCI -17
WISC RAPIDS    PTCLDY     3 -14  45 N12       30.41R WCI -13
STEVENS POINT  PTCLDY     1 -14  49 NW7G16    30.38R WCI -11
WAUPACA        CLEAR      6 -12  42 NW16G23   30.39R WCI -12
SHAWANO        CLEAR      4 -13  43 NW9       30.38R WCI -10
CLINTONVILLE   PTCLDY     3 -15  43 NW14G21   30.38R WCI -15
WAUTOMA        CLEAR      5 -13  43 N10       30.40R WCI -10
$$

WIZ038-039-048-051-130200-
FOX VALLEY

CITY           SKY/WX    TMP DP  RH WIND       PRES   REMARKS
NWS GREEN BAY  CLEAR      4 -11  50 NW16G28   30.37R WCI -15
APPLETON       PTCLDY     3 -15  43 NW15G22   30.33R WCI -15
OSHKOSH        CLEAR      6 -10  47 N17G23    30.35R WCI -13
FOND DU LAC    CLEAR      7  -9  48 N17       30.36R WCI -12
$$

WIZ022-050-052-130200-
EAST CENTRAL WISCONSIN

CITY           SKY/WX    TMP DP  RH WIND       PRES   REMARKS
EPHRAIM        FAIR       1 -13  50 NW16G23   30.31R WCI -18
STURGEON BAY   PTCLDY     1 -13  51 NW20      30.34R WCI -20
MANITOWOC      CLEAR      6  -7  54 NW17G26   30.34R WCI -13
SHEBOYGAN      CLEAR      6 -10  47 N13       30.34R WCI -10
$$

LMZ563-521-522-541>543-130200-
LAKESHORE

STATION/POSITION TIME  TEMP    WIND        PRES    VSBY  WAVE
                       AIR SEA DIR/SP/G                  HT/PER
                 (UTC) (F)     (DEG/KT/KT) (MB)    (MI)  (FT/S)
SHEBOYGAN LKSHOR 0100    8     340/ 19/ 24 1029.3R
KEWAUNEE LKSHORE 0000    7                 1025.5R
ALGOMA MARINA    0011          330/ 21/ 27   N/A
SISTER BAY LKSHO 0005    3     340/ 32/ 39   N/A
CHAMBERS ISLAND  0000    3     300/ 13/ 22 1026.8R
MENOMINEE LKSHOR 0000    3                 1025.9R
$$




USA.gov is the U.S. government's official web portal to all federal, state and local government web resources and services.